Погода в Тампере

Финляндия     61°29′53″N   23°47′13″E
темп.,
°C
ветер,
м/с
пор.,
м/с
влажн.,
%
обл.,
%
осадки,
мм/ч
давл.,
гПа
погр.,
м
27 ноября, сб
сб2723:00−8с119863 0.0 100317
02:00−9ссв119760 0.0 100516
05:00−9св129721 0.0 100637
08:00−10всв13955 0.0 100758
11:00−8всв268220 0.0 1008220
14:00−7св268399 0.0 1008219
17:00−8всв2888100 0.0 1008222
20:00−8всв2885100 0.0 1008263
28 ноября, вс
вс2823:00−8св2789100 0.0 1008247
02:00−8св3891100 0.0 1007266
05:00−8св3888100 0.0 1006322
08:00−8св3985100 0.0 1007319
11:00−7св31075100 0.0 1007364
14:00−6св3876100 0.0 1007417
17:00−7св3882100 0.0 1008362
20:00−7всв2785100 0.0 1009353
29 ноября, пн
пн2923:00−7всв3887100 0.0 1010299
02:00−6всв288577 0.0 1010362
05:00−7всв389068 0.0 1009275
08:00−7всв398910 0.0 1009324
11:00−7всв398668 0.0 1008509
14:00−6всв3884100 0.0 1006555
17:00−8св3889100 0.0 1005447
20:00−8св4889100 0.1 1002503
30 ноября, вт
вт3023:00−9св4983100 0.0 1000509
02:00−9ссв4983100 0.0 997565
05:00−8ссв41085100 0.0 994640
08:00−9с41088100 0.0 993515
11:00−10с4108589 0.0 992486
14:00−10ссз4108699 0.0 991500
17:00−11ссз4109096 0.0 991439
20:00−11сз4119173 0.1 991404
1 декабря, ср
ср123:00−10сз413906 0.0 992437
02:00−10сз413887 0.0 993493
05:00−10зсз3109458 0.0 994356
08:00−10зсз39959 0.0 994216
11:00−9зсз27949 0.0 995186
14:00−8з259323 0.0 995149
17:00−10юз139761 0.0 99558
20:00−9юз139794 0.0 99453